Wetterdaten: Woche 18.12.23 - 24.12.23 (KW51)
Datum Zeit Temp. I. Temp. A. Feuchte I. Feuchte A. Luftdruck Regen Wind Richtung Sonnenschein Solar Taupunkt Windchill Windböen
18.12.2023 00:00 22,1 °C 6,1 °C 54 % 92 % 1032,3 hPa 0,0 l/m² 19,2 km/h (3 Bft) SW 0,00 h 0 W/m² 4,9 °C -1,2 °C 27,6 km/h (5 Bft)
18.12.2023 01:00 22,0 °C 6,4 °C 54 % 91 % 1031,6 hPa 0,0 l/m² 14,6 km/h (3 Bft) SW 0,00 h 0 W/m² 5,0 °C 1,1 °C 21,1 km/h (4 Bft)
18.12.2023 02:00 21,8 °C 6,0 °C 54 % 91 % 1030,9 hPa 0,0 l/m² 14,4 km/h (3 Bft) SW 0,00 h 0 W/m² 4,6 °C 0,7 °C 19,5 km/h (3 Bft)
18.12.2023 03:00 21,8 °C 5,6 °C 54 % 91 % 1030,6 hPa 0,0 l/m² 10,4 km/h (2 Bft) SW 0,00 h 0 W/m² 4,2 °C 2,6 °C 14,4 km/h (3 Bft)
18.12.2023 04:00 21,8 °C 5,3 °C 54 % 91 % 1030,5 hPa 0,0 l/m² 6,6 km/h (2 Bft) SW 0,00 h 0 W/m² 4,0 °C 4,5 °C 10,7 km/h (2 Bft)
18.12.2023 05:00 21,8 °C 5,3 °C 54 % 91 % 1030,5 hPa 0,0 l/m² 10,0 km/h (2 Bft) SW 0,00 h 0 W/m² 3,9 °C 2,3 °C 15,3 km/h (3 Bft)
18.12.2023 06:00 21,8 °C 5,0 °C 54 % 90 % 1030,5 hPa 0,0 l/m² 11,9 km/h (2 Bft) SW 0,00 h 0 W/m² 3,6 °C 1,1 °C 16,6 km/h (3 Bft)
18.12.2023 07:00 21,7 °C 4,5 °C 51 % 91 % 1030,7 hPa 0,0 l/m² 13,9 km/h (3 Bft) SW 0,00 h 0 W/m² 3,1 °C -0,8 °C 18,3 km/h (3 Bft)
18.12.2023 08:00 21,8 °C 3,4 °C 52 % 91 % 1031,1 hPa 0,0 l/m² 6,1 km/h (2 Bft) SW 0,00 h 17 W/m² 2,1 °C 2,7 °C 8,0 km/h (2 Bft)
18.12.2023 09:00 23,3 °C 4,3 °C 49 % 92 % 1031,3 hPa 0,0 l/m² 7,1 km/h (2 Bft) SW 0,88 h 90 W/m² 3,1 °C 3,1 °C 10,6 km/h (2 Bft)
18.12.2023 10:00 23,1 °C 5,8 °C 50 % 90 % 1031,2 hPa 0,0 l/m² 12,6 km/h (3 Bft) SW 1,02 h 211 W/m² 4,3 °C 1,5 °C 16,8 km/h (3 Bft)
18.12.2023 11:00 23,3 °C 6,6 °C 50 % 87 % 1030,6 hPa 0,0 l/m² 14,8 km/h (3 Bft) SW 1,00 h 261 W/m² 4,6 °C 1,3 °C 19,0 km/h (3 Bft)
18.12.2023 12:00 23,4 °C 7,2 °C 50 % 84 % 1030,0 hPa 0,0 l/m² 16,2 km/h (3 Bft) SW 1,00 h 261 W/m² 4,8 °C 1,3 °C 21,1 km/h (4 Bft)
18.12.2023 13:00 23,1 °C 7,5 °C 50 % 83 % 1029,4 hPa 0,0 l/m² 13,3 km/h (3 Bft) SW 1,00 h 160 W/m² 4,9 °C 3,0 °C 17,8 km/h (3 Bft)
18.12.2023 14:00 22,8 °C 8,6 °C 51 % 79 % 1028,7 hPa 0,0 l/m² 17,2 km/h (3 Bft) SW 1,00 h 161 W/m² 5,2 °C 2,5 °C 22,9 km/h (4 Bft)
18.12.2023 15:00 22,7 °C 7,4 °C 51 % 81 % 1028,4 hPa 0,0 l/m² 12,8 km/h (3 Bft) SW 0,20 h 34 W/m² 4,3 °C 3,3 °C 17,6 km/h (3 Bft)
18.12.2023 16:00 22,4 °C 5,6 °C 52 % 82 % 1028,1 hPa 0,0 l/m² 7,4 km/h (2 Bft) S-SW 0,00 h 8 W/m² 2,8 °C 4,2 °C 9,9 km/h (2 Bft)
18.12.2023 17:00 22,2 °C 3,8 °C 51 % 87 % 1027,7 hPa 0,0 l/m² 6,7 km/h (2 Bft) S-SW 0,00 h 0 W/m² 1,8 °C 3,0 °C 8,3 km/h (2 Bft)
18.12.2023 18:00 22,3 °C 3,8 °C 53 % 86 % 1027,3 hPa 0,0 l/m² 3,5 km/h (1 Bft) S-SW 0,00 h 0 W/m² 1,6 °C 3,6 °C 4,8 km/h (1 Bft)
18.12.2023 19:00 22,2 °C 4,4 °C 54 % 80 % 1026,7 hPa 0,0 l/m² 9,5 km/h (2 Bft) SW 0,00 h 0 W/m² 1,2 °C 1,8 °C 12,8 km/h (3 Bft)
18.12.2023 20:00 22,3 °C 5,0 °C 54 % 76 % 1026,6 hPa 0,0 l/m² 9,4 km/h (2 Bft) SW 0,00 h 0 W/m² 1,1 °C 2,7 °C 13,5 km/h (3 Bft)
18.12.2023 21:00 22,7 °C 5,9 °C 54 % 74 % 1025,8 hPa 0,0 l/m² 13,3 km/h (3 Bft) SW 0,00 h 0 W/m² 1,5 °C 1,2 °C 17,7 km/h (3 Bft)
18.12.2023 22:00 22,8 °C 6,3 °C 54 % 72 % 1025,2 hPa 0,0 l/m² 16,0 km/h (3 Bft) SW 0,00 h 0 W/m² 1,6 °C 0,5 °C 21,1 km/h (4 Bft)
18.12.2023 23:00 22,4 °C 6,5 °C 54 % 72 % 1024,6 hPa 0,0 l/m² 17,3 km/h (3 Bft) S-SW 0,00 h 0 W/m² 1,7 °C -0,1 °C 22,4 km/h (4 Bft)
19.12.2023 00:00 22,2 °C 6,6 °C 54 % 71 % 1024,3 hPa 0,0 l/m² 12,1 km/h (2 Bft) SW 0,00 h 0 W/m² 1,7 °C 2,8 °C 16,9 km/h (3 Bft)
19.12.2023 01:00 22,2 °C 5,5 °C 54 % 73 % 1023,7 hPa 0,0 l/m² 8,4 km/h (2 Bft) SW 0,00 h 0 W/m² 1,1 °C 3,6 °C 12,7 km/h (3 Bft)
19.12.2023 02:00 22,1 °C 5,8 °C 54 % 71 % 1024,0 hPa 0,0 l/m² 12,0 km/h (2 Bft) W-SW 0,00 h 0 W/m² 1,0 °C 2,0 °C 16,1 km/h (3 Bft)
19.12.2023 03:00 22,1 °C 5,4 °C 54 % 76 % 1023,6 hPa 0,0 l/m² 10,4 km/h (2 Bft) S-SW 0,00 h 0 W/m² 1,5 °C 2,4 °C 14,0 km/h (3 Bft)
19.12.2023 04:00 22,1 °C 5,7 °C 54 % 76 % 1022,8 hPa 0,0 l/m² 14,8 km/h (3 Bft) SW 0,00 h 0 W/m² 1,7 °C 0,0 °C 20,0 km/h (4 Bft)
19.12.2023 05:00 22,1 °C 5,6 °C 53 % 77 % 1022,6 hPa 0,0 l/m² 16,4 km/h (3 Bft) S-SW 0,00 h 0 W/m² 1,9 °C -0,8 °C 21,1 km/h (4 Bft)
19.12.2023 06:00 21,9 °C 5,6 °C 52 % 79 % 1022,4 hPa 0,0 l/m² 17,1 km/h (3 Bft) SW 0,00 h 0 W/m² 2,2 °C -1,1 °C 23,7 km/h (4 Bft)
19.12.2023 07:00 21,8 °C 5,7 °C 52 % 81 % 1022,0 hPa 0,0 l/m² 14,0 km/h (3 Bft) S-SW 0,00 h 0 W/m² 2,7 °C 0,5 °C 19,0 km/h (3 Bft)
19.12.2023 08:00 21,7 °C 5,8 °C 54 % 83 % 1021,0 hPa 0,0 l/m² 13,7 km/h (3 Bft) S 0,00 h 15 W/m² 3,2 °C 0,8 °C 19,4 km/h (3 Bft)
19.12.2023 09:00 21,7 °C 6,1 °C 55 % 85 % 1021,1 hPa 0,0 l/m² 15,4 km/h (3 Bft) SW 0,00 h 18 W/m² 3,8 °C 0,4 °C 20,8 km/h (4 Bft)
19.12.2023 10:00 21,7 °C 6,3 °C 55 % 84 % 1020,4 hPa 0,0 l/m² 7,0 km/h (2 Bft) W-SW 0,00 h 20 W/m² 3,9 °C 5,0 °C 11,7 km/h (2 Bft)
19.12.2023 11:00 21,7 °C 6,5 °C 56 % 85 % 1019,3 hPa 0,0 l/m² 15,0 km/h (3 Bft) SW 0,48 h 49 W/m² 4,1 °C 1,2 °C 21,0 km/h (4 Bft)
19.12.2023 12:00 21,6 °C 6,6 °C 56 % 85 % 1018,4 hPa 0,0 l/m² 15,9 km/h (3 Bft) SW 0,02 h 37 W/m² 4,2 °C 0,7 °C 22,0 km/h (4 Bft)
19.12.2023 13:00 21,6 °C 6,5 °C 55 % 85 % 1017,1 hPa 0,0 l/m² 11,1 km/h (2 Bft) SW 0,00 h 21 W/m² 4,2 °C 3,1 °C 17,1 km/h (3 Bft)
19.12.2023 14:00 21,7 °C 6,5 °C 55 % 86 % 1016,5 hPa 0,0 l/m² 17,3 km/h (3 Bft) SW 0,00 h 6 W/m² 4,3 °C 0,1 °C 23,3 km/h (4 Bft)
19.12.2023 15:00 21,7 °C 6,1 °C 55 % 87 % 1016,1 hPa 0,2 l/m² 19,5 km/h (3 Bft) S-SW 0,00 h 0 W/m² 4,1 °C -1,5 °C 26,3 km/h (4 Bft)
19.12.2023 16:00 21,5 °C 5,7 °C 54 % 89 % 1015,5 hPa 0,2 l/m² 20,1 km/h (4 Bft) S-SW 0,00 h 0 W/m² 4,0 °C -2,2 °C 27,2 km/h (5 Bft)
19.12.2023 17:00 21,5 °C 5,7 °C 53 % 88 % 1015,0 hPa 0,0 l/m² 18,6 km/h (3 Bft) S-SW 0,00 h 0 W/m² 3,9 °C -1,6 °C 25,4 km/h (4 Bft)
19.12.2023 18:00 21,6 °C 5,7 °C 54 % 87 % 1014,4 hPa 0,0 l/m² 23,9 km/h (4 Bft) S-SW 0,00 h 0 W/m² 3,7 °C -3,7 °C 32,0 km/h (5 Bft)
19.12.2023 19:00 21,6 °C 5,3 °C 54 % 89 % 1013,8 hPa 1,0 l/m² 25,2 km/h (4 Bft) SW 0,00 h 0 W/m² 3,6 °C -4,5 °C 33,4 km/h (5 Bft)
19.12.2023 20:00 21,9 °C 5,1 °C 55 % 91 % 1013,3 hPa 1,4 l/m² 20,9 km/h (4 Bft) SW 0,00 h 0 W/m² 3,7 °C -3,3 °C 28,4 km/h (5 Bft)
19.12.2023 21:00 22,2 °C 5,1 °C 54 % 91 % 1013,2 hPa 0,8 l/m² 17,0 km/h (3 Bft) SW 0,00 h 0 W/m² 3,7 °C -1,7 °C 23,0 km/h (4 Bft)
19.12.2023 22:00 22,0 °C 4,9 °C 54 % 92 % 1013,1 hPa 0,8 l/m² 16,7 km/h (3 Bft) SW 0,00 h 0 W/m² 3,7 °C -1,8 °C 22,1 km/h (4 Bft)
19.12.2023 23:00 21,8 °C 4,9 °C 54 % 92 % 1012,7 hPa 0,2 l/m² 17,3 km/h (3 Bft) SW 0,00 h 0 W/m² 3,7 °C -2,1 °C 23,6 km/h (4 Bft)
20.12.2023 00:00 21,7 °C 4,9 °C 54 % 92 % 1012,3 hPa 0,4 l/m² 17,2 km/h (3 Bft) SW 0,00 h 0 W/m² 3,7 °C -2,1 °C 22,9 km/h (4 Bft)
20.12.2023 01:00 21,6 °C 4,9 °C 54 % 92 % 1011,9 hPa 0,0 l/m² 16,7 km/h (3 Bft) SW 0,00 h 0 W/m² 3,7 °C -1,9 °C 23,3 km/h (4 Bft)
20.12.2023 02:00 21,6 °C 4,9 °C 55 % 92 % 1011,7 hPa 0,2 l/m² 13,7 km/h (3 Bft) SW 0,00 h 0 W/m² 3,7 °C -0,3 °C 19,3 km/h (3 Bft)
20.12.2023 03:00 21,6 °C 5,0 °C 55 % 92 % 1011,2 hPa 0,0 l/m² 15,2 km/h (3 Bft) SW 0,00 h 0 W/m² 3,8 °C -1,0 °C 22,1 km/h (4 Bft)
20.12.2023 04:00 21,5 °C 5,2 °C 55 % 92 % 1011,2 hPa 0,0 l/m² 13,3 km/h (3 Bft) SW 0,00 h 0 W/m² 4,0 °C 0,3 °C 18,7 km/h (3 Bft)
20.12.2023 05:00 21,5 °C 5,2 °C 55 % 92 % 1011,4 hPa 0,0 l/m² 6,7 km/h (2 Bft) SW 0,00 h 0 W/m² 4,1 °C 4,4 °C 10,0 km/h (2 Bft)
20.12.2023 06:00 21,6 °C 5,0 °C 55 % 93 % 1011,6 hPa 0,0 l/m² 6,9 km/h (2 Bft) SW 0,00 h 0 W/m² 3,9 °C 4,1 °C 9,3 km/h (2 Bft)
20.12.2023 07:00 21,3 °C 4,3 °C 51 % 92 % 1011,6 hPa 0,0 l/m² 7,8 km/h (2 Bft) SW 0,00 h 0 W/m² 3,1 °C 2,1 °C 10,2 km/h (2 Bft)
20.12.2023 08:00 21,3 °C 4,6 °C 52 % 91 % 1011,6 hPa 0,0 l/m² 12,3 km/h (2 Bft) SW 0,00 h 13 W/m² 3,3 °C 0,3 °C 15,7 km/h (3 Bft)
20.12.2023 09:00 21,7 °C 5,3 °C 52 % 87 % 1011,7 hPa 0,0 l/m² 16,3 km/h (3 Bft) SW 0,53 h 78 W/m² 3,3 °C -1,2 °C 21,8 km/h (4 Bft)
20.12.2023 10:00 21,9 °C 5,7 °C 52 % 85 % 1011,6 hPa 0,0 l/m² 17,3 km/h (3 Bft) SW 0,60 h 68 W/m² 3,5 °C -1,0 °C 23,6 km/h (4 Bft)
20.12.2023 11:00 22,1 °C 6,5 °C 51 % 85 % 1010,9 hPa 0,0 l/m² 20,0 km/h (4 Bft) SW 1,00 h 219 W/m² 4,1 °C -1,2 °C 26,9 km/h (4 Bft)
20.12.2023 12:00 22,4 °C 7,0 °C 51 % 83 % 1010,0 hPa 0,0 l/m² 26,9 km/h (4 Bft) SW 1,00 h 225 W/m² 4,3 °C -2,7 °C 36,0 km/h (5 Bft)
20.12.2023 13:00 22,4 °C 7,1 °C 51 % 82 % 1009,2 hPa 0,0 l/m² 29,1 km/h (5 Bft) SW 0,90 h 156 W/m² 4,2 °C -3,2 °C 39,2 km/h (6 Bft)
20.12.2023 14:00 22,2 °C 6,9 °C 51 % 83 % 1009,0 hPa 0,0 l/m² 27,4 km/h (5 Bft) SW 0,75 h 74 W/m² 4,1 °C -3,0 °C 36,7 km/h (5 Bft)
20.12.2023 15:00 22,0 °C 6,5 °C 51 % 86 % 1009,0 hPa 0,0 l/m² 26,0 km/h (4 Bft) SW 0,13 h 30 W/m² 4,3 °C -3,2 °C 34,2 km/h (5 Bft)
20.12.2023 16:00 21,7 °C 5,8 °C 52 % 88 % 1009,7 hPa 1,0 l/m² 14,0 km/h (3 Bft) W-SW 0,00 h 0 W/m² 4,0 °C 1,1 °C 19,3 km/h (3 Bft)
20.12.2023 17:00 21,6 °C 5,3 °C 50 % 91 % 1010,1 hPa 1,2 l/m² 16,6 km/h (3 Bft) W-SW 0,00 h 0 W/m² 4,0 °C -1,1 °C 22,5 km/h (4 Bft)
20.12.2023 18:00 21,6 °C 5,3 °C 51 % 89 % 1009,8 hPa 0,6 l/m² 16,3 km/h (3 Bft) W-SW 0,00 h 0 W/m² 3,7 °C -0,8 °C 21,6 km/h (4 Bft)
20.12.2023 19:00 21,7 °C 5,0 °C 51 % 91 % 1009,6 hPa 0,8 l/m² 7,8 km/h (2 Bft) SW 0,00 h 0 W/m² 3,6 °C 3,6 °C 10,5 km/h (2 Bft)
20.12.2023 20:00 22,0 °C 5,0 °C 53 % 93 % 1008,9 hPa 0,6 l/m² 10,4 km/h (2 Bft) SW 0,00 h 0 W/m² 3,9 °C 1,9 °C 14,4 km/h (3 Bft)
20.12.2023 21:00 22,3 °C 5,7 °C 53 % 92 % 1008,1 hPa 0,0 l/m² 18,1 km/h (3 Bft) SW 0,00 h 0 W/m² 4,5 °C -1,4 °C 24,5 km/h (4 Bft)
20.12.2023 22:00 22,4 °C 6,0 °C 53 % 90 % 1006,9 hPa 0,0 l/m² 19,8 km/h (3 Bft) SW 0,00 h 0 W/m² 4,5 °C -1,7 °C 26,7 km/h (4 Bft)
20.12.2023 23:00 22,2 °C 6,4 °C 53 % 88 % 1005,3 hPa 0,0 l/m² 26,1 km/h (4 Bft) SW 0,00 h 0 W/m² 4,7 °C -3,3 °C 35,0 km/h (5 Bft)
21.12.2023 00:00 21,9 °C 6,7 °C 53 % 88 % 1004,3 hPa 0,0 l/m² 27,3 km/h (5 Bft) SW 0,00 h 0 W/m² 4,8 °C -3,3 °C 37,0 km/h (5 Bft)
21.12.2023 01:00 21,7 °C 6,8 °C 53 % 89 % 1003,0 hPa 0,2 l/m² 32,6 km/h (5 Bft) SW 0,00 h 0 W/m² 5,1 °C -4,4 °C 43,2 km/h (6 Bft)
21.12.2023 02:00 21,7 °C 6,8 °C 52 % 89 % 1002,5 hPa 0,0 l/m² 29,2 km/h (5 Bft) SW 0,00 h 0 W/m² 5,1 °C -3,6 °C 39,0 km/h (6 Bft)
21.12.2023 03:00 21,7 °C 6,8 °C 52 % 90 % 1001,6 hPa 0,2 l/m² 28,2 km/h (5 Bft) SW 0,00 h 0 W/m² 5,3 °C -3,3 °C 40,5 km/h (6 Bft)
21.12.2023 04:00 21,6 °C 7,0 °C 52 % 90 % 1000,6 hPa 0,0 l/m² 26,8 km/h (4 Bft) SW 0,00 h 0 W/m² 5,5 °C -2,7 °C 35,4 km/h (5 Bft)
21.12.2023 05:00 21,6 °C 7,6 °C 53 % 89 % 999,7 hPa 0,0 l/m² 26,5 km/h (4 Bft) SW 0,00 h 0 W/m² 5,9 °C -1,9 °C 36,2 km/h (5 Bft)
21.12.2023 06:00 21,6 °C 7,7 °C 53 % 89 % 999,1 hPa 0,0 l/m² 26,8 km/h (4 Bft) SW 0,00 h 0 W/m² 6,1 °C -1,6 °C 35,5 km/h (5 Bft)
21.12.2023 07:00 21,6 °C 7,9 °C 53 % 89 % 998,3 hPa 0,0 l/m² 23,8 km/h (4 Bft) SW 0,00 h 0 W/m² 6,2 °C -0,6 °C 31,7 km/h (5 Bft)
21.12.2023 08:00 21,5 °C 8,1 °C 53 % 90 % 997,0 hPa 0,0 l/m² 26,0 km/h (4 Bft) SW 0,00 h 5 W/m² 6,5 °C -0,9 °C 34,1 km/h (5 Bft)
21.12.2023 09:00 21,6 °C 8,5 °C 54 % 88 % 994,7 hPa 0,0 l/m² 32,4 km/h (5 Bft) S-SW 0,00 h 17 W/m² 6,7 °C -1,9 °C 41,9 km/h (6 Bft)
21.12.2023 10:00 21,6 °C 9,0 °C 53 % 86 % 992,8 hPa 0,0 l/m² 32,9 km/h (5 Bft) S-SW 0,00 h 24 W/m² 6,9 °C -1,3 °C 43,3 km/h (6 Bft)
21.12.2023 11:00 21,4 °C 9,0 °C 53 % 88 % 991,3 hPa 0,0 l/m² 31,1 km/h (5 Bft) SW 0,25 h 46 W/m² 7,1 °C -0,9 °C 41,8 km/h (6 Bft)
21.12.2023 12:00 21,4 °C 9,3 °C 52 % 89 % 989,4 hPa 0,2 l/m² 34,1 km/h (5 Bft) SW 1,00 h 111 W/m² 7,6 °C -1,0 °C 44,4 km/h (6 Bft)
21.12.2023 13:00 21,3 °C 9,8 °C 52 % 88 % 987,5 hPa 0,0 l/m² 33,8 km/h (5 Bft) SW 1,00 h 133 W/m² 7,9 °C -0,4 °C 45,1 km/h (6 Bft)
21.12.2023 14:00 21,3 °C 9,6 °C 52 % 89 % 986,3 hPa 0,0 l/m² 30,8 km/h (5 Bft) SW 0,87 h 77 W/m² 7,9 °C 0,0 °C 41,1 km/h (6 Bft)
21.12.2023 15:00 21,3 °C 9,6 °C 53 % 90 % 985,4 hPa 0,0 l/m² 27,6 km/h (5 Bft) SW 0,02 h 18 W/m² 8,0 °C 0,7 °C 37,2 km/h (5 Bft)
21.12.2023 16:00 21,3 °C 8,9 °C 53 % 86 % 986,4 hPa 0,6 l/m² 27,4 km/h (5 Bft) W 0,00 h 5 W/m² 6,6 °C -0,0 °C 38,5 km/h (6 Bft)
21.12.2023 17:00 21,3 °C 6,0 °C 53 % 88 % 987,7 hPa 1,4 l/m² 19,9 km/h (4 Bft) W-NW 0,00 h 0 W/m² 4,2 °C -1,5 °C 29,9 km/h (5 Bft)
21.12.2023 18:00 21,3 °C 5,7 °C 53 % 87 % 987,6 hPa 0,0 l/m² 24,0 km/h (4 Bft) W-SW 0,00 h 0 W/m² 3,7 °C -3,6 °C 32,2 km/h (5 Bft)
21.12.2023 19:00 21,3 °C 6,6 °C 53 % 80 % 988,0 hPa 0,0 l/m² 30,5 km/h (5 Bft) W 0,00 h 0 W/m² 3,4 °C -4,1 °C 41,3 km/h (6 Bft)
21.12.2023 20:00 21,4 °C 6,2 °C 53 % 76 % 988,8 hPa 0,0 l/m² 28,2 km/h (5 Bft) W 0,00 h 0 W/m² 2,4 °C -4,1 °C 38,1 km/h (6 Bft)
21.12.2023 21:00 21,8 °C 5,3 °C 54 % 80 % 989,3 hPa 0,0 l/m² 20,7 km/h (4 Bft) W-SW 0,00 h 0 W/m² 2,2 °C -2,8 °C 27,2 km/h (5 Bft)
21.12.2023 22:00 21,6 °C 5,9 °C 53 % 75 % 990,2 hPa 0,0 l/m² 28,0 km/h (5 Bft) W 0,00 h 0 W/m² 1,8 °C -4,3 °C 38,0 km/h (6 Bft)
21.12.2023 23:00 21,4 °C 5,4 °C 53 % 78 % 991,1 hPa 0,0 l/m² 25,7 km/h (4 Bft) W-SW 0,00 h 0 W/m² 1,9 °C -4,6 °C 33,0 km/h (5 Bft)
22.12.2023 00:00 21,3 °C 4,8 °C 53 % 81 % 991,7 hPa 0,0 l/m² 26,9 km/h (4 Bft) W-SW 0,00 h 0 W/m² 1,8 °C -5,8 °C 34,9 km/h (5 Bft)
22.12.2023 01:00 21,2 °C 4,8 °C 53 % 80 % 992,2 hPa 0,0 l/m² 27,3 km/h (5 Bft) W-SW 0,00 h 0 W/m² 1,7 °C -5,7 °C 36,8 km/h (5 Bft)
22.12.2023 02:00 21,1 °C 5,0 °C 53 % 79 % 992,8 hPa 0,0 l/m² 23,6 km/h (4 Bft) W-SW 0,00 h 0 W/m² 1,6 °C -4,4 °C 31,4 km/h (5 Bft)
22.12.2023 03:00 21,1 °C 4,5 °C 53 % 80 % 992,8 hPa 0,0 l/m² 23,2 km/h (4 Bft) W-SW 0,00 h 0 W/m² 1,4 °C -4,9 °C 29,9 km/h (5 Bft)
22.12.2023 04:00 21,1 °C 4,4 °C 53 % 81 % 993,0 hPa 0,0 l/m² 21,9 km/h (4 Bft) W-SW 0,00 h 0 W/m² 1,4 °C -4,7 °C 28,6 km/h (5 Bft)
22.12.2023 05:00 21,1 °C 4,5 °C 53 % 80 % 992,8 hPa 0,0 l/m² 29,8 km/h (5 Bft) W-SW 0,00 h 0 W/m² 1,3 °C -6,9 °C 41,3 km/h (6 Bft)
22.12.2023 06:00 21,1 °C 4,8 °C 53 % 75 % 992,8 hPa 0,0 l/m² 26,9 km/h (4 Bft) W-SW 0,00 h 0 W/m² 0,8 °C -5,6 °C 36,1 km/h (5 Bft)
22.12.2023 07:00 21,1 °C 4,0 °C 53 % 83 % 993,5 hPa 0,6 l/m² 26,2 km/h (4 Bft) W 0,00 h 0 W/m² 1,3 °C -6,6 °C 35,2 km/h (5 Bft)
22.12.2023 08:00 21,1 °C 4,1 °C 53 % 82 % 994,1 hPa 0,0 l/m² 30,4 km/h (5 Bft) W 0,00 h 11 W/m² 1,3 °C -7,2 °C 41,7 km/h (6 Bft)
22.12.2023 09:00 21,1 °C 4,0 °C 53 % 81 % 995,2 hPa 0,4 l/m² 38,3 km/h (6 Bft) W 0,10 h 30 W/m² 1,1 °C -9,4 °C 54,0 km/h (7 Bft)
22.12.2023 10:00 21,1 °C 2,9 °C 53 % 89 % 996,2 hPa 0,6 l/m² 29,5 km/h (5 Bft) W 0,30 h 59 W/m² 1,2 °C -8,7 °C 40,0 km/h (6 Bft)
22.12.2023 11:00 21,4 °C 5,0 °C 52 % 83 % 996,1 hPa 0,0 l/m² 22,2 km/h (4 Bft) W 1,00 h 185 W/m² 2,3 °C -3,5 °C 30,5 km/h (5 Bft)
22.12.2023 12:00 21,5 °C 6,4 °C 53 % 75 % 995,3 hPa 0,0 l/m² 24,9 km/h (4 Bft) W-SW 0,98 h 144 W/m² 2,3 °C -2,9 °C 33,7 km/h (5 Bft)
22.12.2023 13:00 21,5 °C 5,4 °C 54 % 82 % 995,1 hPa 0,4 l/m² 17,6 km/h (3 Bft) W 0,13 h 32 W/m² 2,6 °C -1,4 °C 24,5 km/h (4 Bft)
22.12.2023 14:00 21,5 °C 5,0 °C 54 % 87 % 995,0 hPa 0,2 l/m² 14,7 km/h (3 Bft) W 0,40 h 47 W/m² 3,0 °C -0,6 °C 21,1 km/h (4 Bft)
22.12.2023 15:00 21,5 °C 5,1 °C 53 % 88 % 995,1 hPa 0,0 l/m² 10,4 km/h (2 Bft) W-NW 0,00 h 15 W/m² 3,2 °C 2,0 °C 17,1 km/h (3 Bft)
22.12.2023 16:00 21,4 °C 5,3 °C 53 % 83 % 994,8 hPa 0,0 l/m² 18,2 km/h (3 Bft) W 0,00 h 0 W/m² 2,7 °C -1,7 °C 26,0 km/h (4 Bft)
22.12.2023 17:00 21,4 °C 5,6 °C 52 % 82 % 994,8 hPa 0,2 l/m² 15,5 km/h (3 Bft) W 0,00 h 0 W/m² 2,8 °C -0,1 °C 20,9 km/h (4 Bft)
22.12.2023 18:00 21,3 °C 4,0 °C 51 % 86 % 995,7 hPa 2,2 l/m² 15,3 km/h (3 Bft) NW 0,00 h 0 W/m² 1,9 °C -1,6 °C 22,2 km/h (4 Bft)
22.12.2023 19:00 21,2 °C 1,7 °C 50 % 90 % 996,3 hPa 1,2 l/m² 5,7 km/h (2 Bft) W 0,00 h 0 W/m² 0,2 °C 1,1 °C 9,8 km/h (2 Bft)
22.12.2023 20:00 21,8 °C 1,8 °C 52 % 92 % 996,5 hPa 0,6 l/m² 10,7 km/h (2 Bft) W 0,00 h 0 W/m² 0,6 °C -1,8 °C 14,7 km/h (3 Bft)
22.12.2023 21:00 22,5 °C 2,8 °C 53 % 92 % 997,0 hPa 0,4 l/m² 18,9 km/h (3 Bft) W 0,00 h 0 W/m² 1,7 °C -5,5 °C 25,3 km/h (4 Bft)
22.12.2023 22:00 22,7 °C 3,0 °C 53 % 92 % 997,8 hPa 1,2 l/m² 11,2 km/h (2 Bft) W-NW 0,00 h 0 W/m² 1,8 °C -0,8 °C 17,6 km/h (3 Bft)
22.12.2023 23:00 22,3 °C 4,0 °C 52 % 90 % 998,0 hPa 0,0 l/m² 23,2 km/h (4 Bft) W 0,00 h 0 W/m² 2,5 °C -5,4 °C 33,4 km/h (5 Bft)
23.12.2023 00:00 22,0 °C 5,0 °C 51 % 83 % 998,9 hPa 0,0 l/m² 34,5 km/h (5 Bft) W 0,00 h 0 W/m² 2,2 °C -7,4 °C 49,7 km/h (7 Bft)
23.12.2023 01:00 21,6 °C 4,4 °C 52 % 81 % 1000,1 hPa 0,0 l/m² 30,4 km/h (5 Bft) W-NW 0,00 h 0 W/m² 1,3 °C -7,2 °C 45,4 km/h (6 Bft)
23.12.2023 02:00 21,5 °C 2,7 °C 52 % 86 % 1001,9 hPa 0,0 l/m² 18,5 km/h (3 Bft) NW 0,00 h 0 W/m² 0,7 °C -5,2 °C 31,4 km/h (5 Bft)
23.12.2023 03:00 21,3 °C 2,2 °C 52 % 87 % 1003,1 hPa 0,6 l/m² 21,8 km/h (4 Bft) W 0,00 h 0 W/m² 0,2 °C -7,1 °C 32,0 km/h (5 Bft)
23.12.2023 04:00 21,2 °C 1,9 °C 53 % 88 % 1003,6 hPa 0,0 l/m² 10,5 km/h (2 Bft) W 0,00 h 0 W/m² 0,2 °C -1,5 °C 15,0 km/h (3 Bft)
23.12.2023 05:00 21,2 °C 3,2 °C 53 % 83 % 1003,4 hPa 0,0 l/m² 13,3 km/h (3 Bft) W-SW 0,00 h 0 W/m² 0,6 °C -2,1 °C 17,3 km/h (3 Bft)
23.12.2023 06:00 21,2 °C 3,7 °C 53 % 81 % 1003,1 hPa 0,0 l/m² 15,5 km/h (3 Bft) W-SW 0,00 h 0 W/m² 0,9 °C -2,6 °C 20,6 km/h (4 Bft)
23.12.2023 07:00 21,2 °C 3,1 °C 53 % 88 % 1002,7 hPa 0,8 l/m² 12,6 km/h (3 Bft) SW 0,00 h 0 W/m² 1,3 °C -1,7 °C 17,5 km/h (3 Bft)
23.12.2023 08:00 21,2 °C 2,7 °C 53 % 91 % 1002,0 hPa 0,4 l/m² 10,7 km/h (2 Bft) SW 0,00 h 7 W/m² 1,4 °C -0,8 °C 15,5 km/h (3 Bft)
23.12.2023 09:00 21,3 °C 3,0 °C 54 % 92 % 1001,4 hPa 0,6 l/m² 13,4 km/h (3 Bft) SW 0,00 h 17 W/m² 1,8 °C -2,3 °C 19,0 km/h (3 Bft)
23.12.2023 10:00 21,3 °C 3,0 °C 51 % 92 % 1000,8 hPa 0,4 l/m² 14,0 km/h (3 Bft) SW 0,00 h 28 W/m² 1,8 °C -2,6 °C 19,8 km/h (4 Bft)
23.12.2023 11:00 21,2 °C 3,2 °C 52 % 92 % 1000,5 hPa 0,8 l/m² 8,6 km/h (2 Bft) W-SW 0,00 h 22 W/m² 2,0 °C 1,1 °C 13,3 km/h (3 Bft)
23.12.2023 12:00 21,2 °C 3,4 °C 51 % 92 % 1001,0 hPa 0,6 l/m² 10,5 km/h (2 Bft) W 0,00 h 27 W/m² 2,2 °C -0,1 °C 15,5 km/h (3 Bft)
23.12.2023 13:00 21,2 °C 3,1 °C 52 % 92 % 1001,4 hPa 0,6 l/m² 11,5 km/h (2 Bft) W-SW 0,00 h 26 W/m² 2,0 °C -1,0 °C 15,9 km/h (3 Bft)
23.12.2023 14:00 21,3 °C 3,2 °C 53 % 92 % 1002,2 hPa 0,4 l/m² 11,6 km/h (2 Bft) W 0,00 h 19 W/m² 2,1 °C -0,9 °C 16,4 km/h (3 Bft)
23.12.2023 15:00 21,3 °C 3,6 °C 54 % 92 % 1002,8 hPa 0,2 l/m² 12,5 km/h (2 Bft) W 0,00 h 12 W/m² 2,4 °C -1,0 °C 17,5 km/h (3 Bft)
23.12.2023 16:00 21,6 °C 4,1 °C 55 % 91 % 1003,4 hPa 0,0 l/m² 11,1 km/h (2 Bft) W-SW 0,00 h 0 W/m² 2,7 °C 0,3 °C 15,4 km/h (3 Bft)
23.12.2023 17:00 21,5 °C 3,9 °C 54 % 91 % 1004,0 hPa 0,6 l/m² 6,8 km/h (2 Bft) SW 0,00 h 0 W/m² 2,6 °C 3,2 °C 10,7 km/h (2 Bft)
23.12.2023 18:00 21,2 °C 3,7 °C 52 % 93 % 1004,4 hPa 0,8 l/m² 6,5 km/h (2 Bft) SW 0,00 h 0 W/m² 2,6 °C 3,0 °C 10,0 km/h (2 Bft)
23.12.2023 19:00 21,3 °C 3,9 °C 54 % 94 % 1004,6 hPa 0,6 l/m² 5,2 km/h (1 Bft) W-SW 0,00 h 0 W/m² 2,9 °C 3,2 °C 8,1 km/h (2 Bft)
23.12.2023 20:00 22,0 °C 4,0 °C 54 % 94 % 1004,7 hPa 1,0 l/m² 0,0 km/h (0 Bft) SW 0,00 h 0 W/m² 3,1 °C 4,0 °C 0,0 km/h (0 Bft)
23.12.2023 21:00 22,5 °C 4,1 °C 54 % 94 % 1004,6 hPa 0,6 l/m² 0,2 km/h (0 Bft) S-SW 0,00 h 0 W/m² 3,2 °C 4,1 °C 0,4 km/h (0 Bft)
23.12.2023 22:00 22,6 °C 4,5 °C 54 % 94 % 1004,3 hPa 0,6 l/m² 2,5 km/h (1 Bft) S 0,00 h 0 W/m² 3,6 °C 4,1 °C 3,6 km/h (1 Bft)
23.12.2023 23:00 22,2 °C 6,5 °C 53 % 95 % 1003,9 hPa 0,4 l/m² 9,1 km/h (2 Bft) W-SW 0,00 h 0 W/m² 5,7 °C 4,3 °C 14,0 km/h (3 Bft)
24.12.2023 00:00 21,9 °C 7,7 °C 54 % 95 % 1003,7 hPa 0,2 l/m² 16,0 km/h (3 Bft) SW 0,00 h 0 W/m² 6,9 °C 2,0 °C 23,4 km/h (4 Bft)
24.12.2023 01:00 21,7 °C 8,2 °C 54 % 94 % 1003,6 hPa 0,4 l/m² 22,7 km/h (4 Bft) SW 0,00 h 0 W/m² 7,4 °C 0,1 °C 31,4 km/h (5 Bft)
24.12.2023 02:00 21,6 °C 8,3 °C 54 % 93 % 1003,8 hPa 0,2 l/m² 23,7 km/h (4 Bft) SW 0,00 h 0 W/m² 7,3 °C -0,0 °C 33,1 km/h (5 Bft)
24.12.2023 03:00 21,6 °C 8,6 °C 54 % 92 % 1004,0 hPa 0,0 l/m² 23,9 km/h (4 Bft) SW 0,00 h 0 W/m² 7,3 °C 0,2 °C 33,3 km/h (5 Bft)
24.12.2023 04:00 21,5 °C 8,4 °C 54 % 91 % 1003,9 hPa 0,0 l/m² 21,0 km/h (4 Bft) SW 0,00 h 0 W/m² 7,0 °C 1,0 °C 29,4 km/h (5 Bft)
24.12.2023 05:00 21,4 °C 8,2 °C 54 % 91 % 1003,6 hPa 0,0 l/m² 18,7 km/h (3 Bft) SW 0,00 h 0 W/m² 6,8 °C 1,5 °C 26,5 km/h (4 Bft)
24.12.2023 06:00 21,4 °C 8,5 °C 54 % 91 % 1003,6 hPa 0,0 l/m² 20,0 km/h (4 Bft) SW 0,00 h 0 W/m² 7,0 °C 1,4 °C 28,7 km/h (5 Bft)
24.12.2023 07:00 21,4 °C 8,9 °C 54 % 88 % 1003,3 hPa 0,0 l/m² 20,0 km/h (4 Bft) SW 0,00 h 0 W/m² 7,1 °C 2,0 °C 28,9 km/h (5 Bft)
24.12.2023 08:00 21,4 °C 9,2 °C 54 % 88 % 1003,3 hPa 0,0 l/m² 24,1 km/h (4 Bft) SW 0,00 h 9 W/m² 7,3 °C 1,0 °C 33,1 km/h (5 Bft)
24.12.2023 09:00 21,6 °C 9,2 °C 55 % 89 % 1003,2 hPa 0,0 l/m² 27,2 km/h (5 Bft) SW 0,25 h 39 W/m² 7,4 °C 0,3 °C 37,0 km/h (5 Bft)
24.12.2023 10:00 21,6 °C 9,6 °C 55 % 89 % 1003,1 hPa 0,0 l/m² 27,6 km/h (5 Bft) SW 0,98 h 82 W/m² 7,8 °C 0,6 °C 37,2 km/h (5 Bft)
24.12.2023 11:00 21,6 °C 9,8 °C 55 % 88 % 1002,8 hPa 0,0 l/m² 28,2 km/h (5 Bft) SW 1,00 h 75 W/m² 7,9 °C 0,9 °C 38,7 km/h (6 Bft)
24.12.2023 12:00 21,4 °C 10,1 °C 55 % 88 % 1002,3 hPa 0,0 l/m² 27,3 km/h (5 Bft) SW 0,95 h 73 W/m² 8,2 °C 1,6 °C 37,4 km/h (5 Bft)
24.12.2023 13:00 21,4 °C 10,5 °C 56 % 88 % 1001,7 hPa 0,0 l/m² 26,3 km/h (4 Bft) SW 1,00 h 83 W/m² 8,5 °C 2,2 °C 37,5 km/h (5 Bft)
24.12.2023 14:00 21,4 °C 10,7 °C 56 % 87 % 1001,6 hPa 0,0 l/m² 25,3 km/h (4 Bft) SW 0,37 h 50 W/m² 8,6 °C 2,8 °C 35,0 km/h (5 Bft)
24.12.2023 15:00 21,9 °C 10,8 °C 56 % 86 % 1001,0 hPa 0,0 l/m² 22,2 km/h (4 Bft) SW 0,00 h 15 W/m² 8,5 °C 3,7 °C 30,4 km/h (5 Bft)
24.12.2023 16:00 22,0 °C 10,9 °C 56 % 85 % 1000,7 hPa 0,0 l/m² 24,1 km/h (4 Bft) SW 0,00 h 0 W/m² 8,5 °C 3,3 °C 34,3 km/h (5 Bft)
24.12.2023 17:00 21,7 °C 11,2 °C 57 % 85 % 1000,1 hPa 0,0 l/m² 26,1 km/h (4 Bft) SW 0,00 h 0 W/m² 8,8 °C 3,3 °C 35,6 km/h (5 Bft)
24.12.2023 18:00 21,6 °C 10,9 °C 58 % 88 % 1000,1 hPa 0,2 l/m² 31,0 km/h (5 Bft) SW 0,00 h 0 W/m² 9,0 °C 1,8 °C 42,6 km/h (6 Bft)
24.12.2023 19:00 21,6 °C 10,9 °C 58 % 89 % 1000,0 hPa 0,2 l/m² 32,0 km/h (5 Bft) SW 0,00 h 0 W/m² 9,1 °C 1,5 °C 43,0 km/h (6 Bft)
24.12.2023 20:00 21,8 °C 11,1 °C 59 % 88 % 1000,0 hPa 0,0 l/m² 29,1 km/h (5 Bft) SW 0,00 h 0 W/m² 9,2 °C 2,5 °C 37,6 km/h (5 Bft)
24.12.2023 21:00 22,1 °C 11,3 °C 59 % 88 % 1000,4 hPa 0,0 l/m² 26,7 km/h (4 Bft) SW 0,00 h 0 W/m² 9,4 °C 3,2 °C 36,3 km/h (5 Bft)
24.12.2023 22:00 22,3 °C 11,2 °C 58 % 89 % 1000,5 hPa 0,0 l/m² 26,5 km/h (4 Bft) SW 0,00 h 0 W/m² 9,5 °C 3,2 °C 35,4 km/h (5 Bft)
24.12.2023 23:00 22,1 °C 10,9 °C 57 % 90 % 1000,9 hPa 0,0 l/m² 26,5 km/h (4 Bft) SW 0,00 h 0 W/m² 9,4 °C 2,8 °C 36,3 km/h (5 Bft)
Min-Datum _ 22.12.23 22.12.23 23.12.23 19.12.23 21.12.23 - 23.12.23 - - - 23.12.23 22.12.23 23.12.23
_ Min-Zeit 10:24 20:01 12:13 00:16 15:27 - 22:01 - - - 04:15 09:55 22:01
Minimum _ 21,0 °C 1,3 °C 46 % 69 % 985,1 hPa - 0,0 km/h (0 Bft) - - - -0,1 °C -13,5 °C 0,0 km/h (0 Bft)
Max-Datum _ 18.12.23 24.12.23 24.12.23 24.12.23 18.12.23 22.12.23 22.12.23 - 22.12.23 18.12.23 24.12.23 18.12.23 22.12.23
_ Max-Zeit 09:09 22:00 22:00 00:00 00:00 18:13 09:55 - 12:11 12:40 22:21 13:54 09:55
Maximum _ 24,3 °C 11,4 °C 59 % 96 % 1032,8 hPa 2,2 l/m² 57,9 km/h
W (7 Bft)
- 0,15 h 355 W/m² 9,6 °C 7,2 °C 78,9 km/h
W (9 Bft)
Durchschnitt _ 21,7 °C 6,0 °C 53 % 87 % 1007,3 hPa #31,2 l/m² 18,7 km/h (3 Bft) SW #22:07 h 22 W/m² 4,0 °C -0,5 °C 25,7 km/h (4 Bft)
© 2009 Mathias Hoßbach